Rhodes, Greece

9:50 PM EEST on September 25, 2016 (GMT +0300)
Diagoras

Weather History for LGRP - February, 2013

Change the Weather History Date:

Monday, February 18, 2013

  Actual Average Record
Temperature  
Mean Temperature 52 °F -  
Max Temperature 58 °F 57 °F 71 °F (2016)
Min Temperature 45 °F 48 °F 39 °F (2008)
Degree Days  
Heating Degree Days 14    
Growing Degree Days 2 (Base 50)    
Moisture  
Dew Point 45 °F    
Average Humidity 72    
Maximum Humidity 93    
Minimum Humidity 35    
Precipitation  
Precipitation 0.00 in - - ()
Sea Level Pressure  
Sea Level Pressure 29.95 in    
Wind  
Wind Speed 8 mph ()    
Max Wind Speed 17 mph    
Max Gust Speed -    
Visibility 6.2 miles    
Events      
Averages and records for this station are not official NWS values.
T = Trace of Precipitation, MM = Missing Value Source: Averaged Metar Reports

Daily Weather History Graph

Daily Weather History Graph

Search for Another Location

Airport or City:

Trip Planner

Search our weather history database for the weather conditions in past years. The results will help you decide how hot, cold, wet, or windy it might be!

Date:

Astronomy

Feb. 18, 2013 Rise Set
Actual Time 6:52 AM EET 5:51 PM EET
Civil Twilight 6:25 AM EET 6:17 PM EET
Nautical Twilight 5:55 AM EET 6:47 PM EET
Astronomical Twilight 5:25 AM EET 7:17 PM EET
Moon 11:28 AM EET (2/18) 1:09 AM EET (2/18)
Length of Visible Light 11h 51m
Length of Day
10h 59m
First Quarter, 55% of the Moon is Illuminated
Feb 18
First Quarter
Feb 25
Full
Mar 4
Last Quarter
Mar 11
New
Mar 19
First Quarter

Hourly Weather History & Observations

Time (EET) Temp. Dew Point Humidity Pressure Visibility Wind Dir Wind Speed Gust Speed Precip Events Conditions
12:20 AM 44.6 °F 42.8 °F 93% 29.89 in 6.2 mi Calm Calm - N/A   Scattered Clouds
12:50 AM 44.6 °F 41.0 °F 87% 29.89 in 6.2 mi Calm Calm - N/A   Scattered Clouds
1:20 AM 44.6 °F 41.0 °F 87% 29.89 in 6.2 mi Calm Calm - N/A   Scattered Clouds
1:50 AM 50.0 °F 44.6 °F 82% 29.89 in 6.2 mi Calm Calm - N/A   Scattered Clouds
2:00 AM 50 °F 44 °F 73% 29.91 in 6 mi Calm Calm - -   Scattered Clouds
2:20 AM 50.0 °F 44.6 °F 82% 29.89 in 6.2 mi Calm Calm - N/A   Scattered Clouds
2:50 AM 50.0 °F 44.6 °F 82% 29.89 in 6.2 mi NW 8.1 mph - N/A   Scattered Clouds
3:20 AM 50.0 °F 44.6 °F 82% 29.89 in 6.2 mi NW 8.1 mph - N/A   Scattered Clouds
3:50 AM 50.0 °F 46.4 °F 87% 29.89 in 6.2 mi WNW 11.5 mph - N/A   Scattered Clouds
4:20 AM 50.0 °F 46.4 °F 87% 29.89 in 6.2 mi WNW 11.5 mph - N/A   Scattered Clouds
4:50 AM 50.0 °F 46.4 °F 87% 29.89 in 6.2 mi WNW 12.7 mph - N/A   Scattered Clouds
5:20 AM 50.0 °F 46.4 °F 87% 29.89 in 6.2 mi WNW 12.7 mph - N/A   Scattered Clouds
5:50 AM 51.8 °F 48.2 °F 88% 29.92 in 6.2 mi WNW 13.8 mph - N/A   Scattered Clouds
6:20 AM 51.8 °F 48.2 °F 88% 29.92 in 6.2 mi WNW 13.8 mph - N/A   Scattered Clouds
6:50 AM 51.8 °F 44.6 °F 76% 29.92 in 6.2 mi NW 12.7 mph - N/A   Partly Cloudy
7:20 AM 51.8 °F 44.6 °F 76% 29.92 in 6.2 mi NW 12.7 mph - N/A   Partly Cloudy
7:50 AM 53.6 °F 42.8 °F 67% 29.92 in 6.2 mi NW 13.8 mph - N/A   Partly Cloudy
8:00 AM 53 °F 43 °F 61% 29.94 in 6 mi NW 13.8 mph - -   Scattered Clouds
8:20 AM 53.6 °F 42.8 °F 67% 29.92 in 6.2 mi WNW 13.8 mph - N/A   Partly Cloudy
8:50 AM 53.6 °F 48.2 °F 82% 29.95 in 6.2 mi West 15.0 mph - N/A   Partly Cloudy
9:20 AM 53.6 °F 48.2 °F 82% 29.95 in 6.2 mi West 15.0 mph - N/A   Partly Cloudy
9:50 AM 55.4 °F 46.4 °F 72% 29.98 in 6.2 mi WNW 15.0 mph - N/A   Partly Cloudy
10:20 AM 55.4 °F 46.4 °F 72% 29.98 in 6.2 mi WNW 12.7 mph - N/A   Partly Cloudy
10:50 AM 55.4 °F 46.4 °F 72% 29.98 in 6.2 mi West 12.7 mph - N/A   Partly Cloudy
11:20 AM 55.4 °F 46.4 °F 72% 29.98 in 6.2 mi WNW 11.5 mph - N/A   Partly Cloudy
11:50 AM 57.2 °F 44.6 °F 63% 29.98 in 6.2 mi WNW 12.7 mph - N/A   Partly Cloudy
12:20 PM 57.2 °F 44.6 °F 63% 29.98 in 6.2 mi West 11.5 mph - N/A   Partly Cloudy
12:50 PM 59.0 °F 42.8 °F 55% 29.95 in 6.2 mi West 11.5 mph - N/A   Partly Cloudy
1:20 PM 59.0 °F 42.8 °F 55% 29.95 in 6.2 mi West 11.5 mph - N/A   Partly Cloudy
1:50 PM 59.0 °F 37.4 °F 45% 29.95 in 6.2 mi West 12.7 mph - N/A   Scattered Clouds
2:00 PM 58 °F 38 °F 35% 29.95 in 6 mi West 12.7 mph - -   Scattered Clouds
2:20 PM 59.0 °F 37.4 °F 45% 29.95 in 6.2 mi WSW 16.1 mph - N/A   Scattered Clouds
2:50 PM 59.0 °F 42.8 °F 55% 29.95 in 6.2 mi West 16.1 mph - N/A   Scattered Clouds
3:20 PM 59.0 °F 42.8 °F 55% 29.95 in 6.2 mi West 15.0 mph - N/A   Scattered Clouds
3:50 PM 57.2 °F 44.6 °F 63% 29.95 in 6.2 mi West 15.0 mph - N/A   Mostly Cloudy
4:20 PM 57.2 °F 44.6 °F 63% 29.98 in 6.2 mi West 16.1 mph - N/A   Mostly Cloudy
4:50 PM 57.2 °F 44.6 °F 63% 29.98 in 6.2 mi West 17.3 mph - N/A   Mostly Cloudy
5:20 PM 57.2 °F 44.6 °F 63% 29.98 in 6.2 mi West 16.1 mph - N/A   Mostly Cloudy
5:50 PM 55.4 °F 44.6 °F 67% 29.98 in 6.2 mi West 16.1 mph - N/A   Mostly Cloudy
6:20 PM 55.4 °F 44.6 °F 67% 29.98 in 6.2 mi West 16.1 mph - N/A   Mostly Cloudy
6:50 PM 53.6 °F 46.4 °F 77% 29.98 in 6.2 mi West 12.7 mph - N/A   Mostly Cloudy
7:20 PM 53.6 °F 46.4 °F 77% 29.95 in 6.2 mi West 11.5 mph - N/A   Mostly Cloudy
7:50 PM 53.6 °F 46.4 °F 77% 29.98 in 6.2 mi West 11.5 mph - N/A   Mostly Cloudy
8:00 PM 54 °F 46 °F 65% 29.99 in 6 mi West 11.5 mph - -   Scattered Clouds
8:20 PM 53.6 °F 46.4 °F 77% 29.98 in 6.2 mi West 11.5 mph - N/A   Mostly Cloudy
8:50 PM 53.6 °F 46.4 °F 77% 29.98 in 6.2 mi West 11.5 mph - N/A   Mostly Cloudy
9:20 PM 53.6 °F 46.4 °F 77% 29.98 in 6.2 mi West 10.4 mph - N/A   Mostly Cloudy
9:50 PM 53.6 °F 44.6 °F 72% 29.98 in 6.2 mi West 10.4 mph - N/A   Mostly Cloudy
10:20 PM 53.6 °F 44.6 °F 72% 29.98 in 6.2 mi WNW 10.4 mph - N/A   Mostly Cloudy
10:50 PM 53.6 °F 44.6 °F 72% 30.01 in 6.2 mi WNW 10.4 mph - N/A   Mostly Cloudy
11:20 PM 53.6 °F 44.6 °F 72% 30.01 in 6.2 mi West 8.1 mph - N/A   Mostly Cloudy
11:50 PM 51.8 °F 46.4 °F 82% 30.01 in 6.2 mi West 8.1 mph - N/A   Mostly Cloudy